QPF
0.02 0.02 0.02 0.03 0.05 0.05 0.04 0.03 0.02 0.03 0.04 0.05 0.05 0.04 0.04 0.02 0.03 0.05 0.06 0.06 0.05 0.04 0.05 0.05 0.04 0.02 0.02 0.02 0.03 0.06 0.10 0.10 0.09 0.08 0.07 0.07 0.05 0.04 0.04 0.04 0.05 0.05 0.05
0.03 0.03 0.03 0.06 0.09 0.08 0.06 0.05 0.05 0.05 0.06 0.08 0.08 0.07 0.06 0.03 0.03 0.05 0.05 0.06 0.05 0.04 0.04 0.07 0.06 0.03 0.02 0.02 0.03 0.05 0.08 0.11 0.09 0.07 0.06 0.06 0.04 0.04 0.04 0.04 0.04 0.05 0.05
0.04 0.04 0.05 0.09 0.08 0.07 0.08 0.10 0.12 0.10 0.09 0.09 0.08 0.06 0.05 0.04 0.04 0.03 0.04 0.05 0.04 0.04 0.04 0.05 0.05 0.04 0.03 0.03 0.04 0.05 0.08 0.08 0.09 0.07 0.06 0.04 0.02 0.02 0.03 0.03 0.03 0.04 0.05
0.04 0.05 0.03 0.04 0.04 0.05 0.10 0.11 0.13 0.16 0.11 0.06 0.05 0.05 0.04 0.03 0.03 0.03 0.04 0.05 0.04 0.04 0.04 0.04 0.04 0.05 0.03 0.03 0.06 0.07 0.08 0.06 0.07 0.08 0.05 0.05 0.03 0.03 0.02 0.01 0.02 0.03 0.03
0.04 0.03 0.03 0.03 0.03 0.05 0.08 0.09 0.13 0.13 0.08 0.04 0.04 0.04 0.04 0.04 0.04 0.04 0.06 0.06 0.05 0.06 0.06 0.05 0.04 0.05 0.05 0.05 0.07 0.08 0.08 0.05 0.06 0.07 0.06 0.06 0.05 0.04 0.03 0.02 0.01 0.02 0.02
0.03 0.03 0.03 0.03 0.03 0.03 0.06 0.09 0.08 0.05 0.04 0.05 0.05 0.04 0.05 0.05 0.05 0.06 0.08 0.07 0.06 0.07 0.09 0.09 0.09 0.08 0.07 0.06 0.08 0.10 0.10 0.08 0.06 0.06 0.06 0.06 0.08 0.08 0.06 0.04 0.03 0.02 0.02
0.02 0.03 0.02 0.02 0.02 0.02 0.04 0.05 0.05 0.04 0.04 0.05 0.06 0.05 0.05 0.04 0.05 0.06 0.06 0.04 0.05 0.07 0.10 0.10 0.15 0.10 0.07 0.05 0.06 0.08 0.08 0.06 0.04 0.04 0.05 0.06 0.06 0.07 0.06 0.05 0.03 0.02 0.02
0.01 0.01 0.02 0.01 0.03 0.04 0.05 0.07 0.09 0.05 0.03 0.04 0.04 0.04 0.05 0.05 0.07 0.07 0.05 0.04 0.04 0.05 0.06 0.07 0.09 0.08 0.07 0.04 0.05 0.07 0.07 0.05 0.05 0.05 0.06 0.06 0.06 0.06 0.05 0.05 0.04 0.04 0.03
0.01 0.02 0.03 0.04 0.05 0.05 0.06 0.06 0.09 0.05 0.03 0.04 0.04 0.04 0.06 0.08 0.10 0.07 0.03 0.03 0.04 0.04 0.06 0.08 0.08 0.08 0.05 0.04 0.04 0.04 0.05 0.05 0.06 0.05 0.05 0.05 0.04 0.04 0.04 0.04 0.05 0.07 0.06
0.01 0.03 0.05 0.07 0.08 0.08 0.05 0.03 0.04 0.04 0.04 0.05 0.06 0.06 0.07 0.08 0.07 0.05 0.04 0.05 0.06 0.07 0.08 0.09 0.09 0.08 0.05 0.05 0.05 0.03 0.03 0.03 0.04 0.05 0.05 0.04 0.04 0.03 0.04 0.05 0.05 0.06 0.06
0.01 0.04 0.06 0.10 0.12 0.09 0.05 0.04 0.04 0.04 0.05 0.06 0.06 0.06 0.04 0.05 0.07 0.05 0.05 0.06 0.08 0.10 0.13 0.11 0.09 0.06 0.05 0.05 0.04 0.02 0.02 0.03 0.03 0.05 0.05 0.05 0.05 0.04 0.05 0.06 0.06 0.06 0.06
0.01 0.03 0.07 0.09 0.09 0.08 0.07 0.05 0.04 0.03 0.05 0.06 0.04 0.04 0.04 0.06 0.07 0.06 0.05 0.05 0.06 0.09 0.11 0.10 0.07 0.06 0.05 0.06 0.04 0.03 0.03 0.02 0.02 0.03 0.03 0.03 0.04 0.04 0.04 0.05 0.05 0.07 0.09
0.01 0.02 0.05 0.07 0.08 0.08 0.06 0.04 0.04 0.05 0.09 0.10 0.05 0.05 0.06 0.08 0.10 0.09 0.07 0.05 0.07 0.09 0.10 0.10 0.08 0.07 0.08 0.07 0.04 0.03 0.04 0.04 0.03 0.03 0.03 0.03 0.04 0.03 0.04 0.04 0.04 0.05 0.08
0.02 0.02 0.02 0.02 0.05 0.04 0.04 0.04 0.06 0.08 0.09 0.12 0.09 0.06 0.05 0.04 0.06 0.07 0.06 0.07 0.08 0.09 0.12 0.13 0.11 0.11 0.08 0.05 0.04 0.04 0.03 0.03 0.04 0.04 0.03 0.03 0.03 0.03 0.03 0.03 0.03 0.05 0.06
0.02 0.01 0.01 0.01 0.02 0.03 0.03 0.03 0.04 0.05 0.04 0.08 0.10 0.07 0.05 0.04 0.05 0.07 0.09 0.08 0.06 0.08 0.13 0.18 0.15 0.12 0.08 0.05 0.05 0.05 0.04 0.04 0.05 0.04 0.03 0.04 0.04 0.04 0.04 0.04 0.04 0.06 0.05
0.02 0.02 0.01 0.02 0.04 0.04 0.04 0.04 0.03 0.02 0.02 0.04 0.04 0.03 0.05 0.06 0.07 0.08 0.09 0.07 0.07 0.11 0.15 0.16 0.14 0.11 0.09 0.07 0.05 0.05 0.04 0.04 0.03 0.04 0.04 0.05 0.05 0.05 0.04 0.04 0.04 0.05 0.04
0.05 0.05 0.03 0.04 0.05 0.04 0.04 0.03 0.02 0.01 0.01 0.02 0.02 0.02 0.03 0.05 0.05 0.07 0.09 0.10 0.09 0.09 0.10 0.10 0.10 0.08 0.06 0.06 0.05 0.05 0.04 0.03 0.03 0.03 0.03 0.03 0.03 0.04 0.03 0.04 0.05 0.05 0.04
0.03 0.04 0.05 0.08 0.09 0.05 0.05 0.03 0.02 0.01 0.01 0.02 0.02 0.03 0.04 0.04 0.04 0.06 0.08 0.11 0.12 0.12 0.12 0.10 0.08 0.06 0.04 0.04 0.04 0.03 0.03 0.03 0.02 0.02 0.02 0.02 0.02 0.03 0.04 0.04 0.04 0.05 0.05
0.04 0.05 0.08 0.12 0.13 0.09 0.06 0.04 0.03 0.03 0.03 0.03 0.03 0.04 0.05 0.05 0.06 0.08 0.09 0.10 0.10 0.08 0.09 0.10 0.08 0.05 0.03 0.04 0.04 0.04 0.03 0.02 0.01 0.01 0.02 0.02 0.02 0.03 0.04 0.05 0.05 0.05 0.06
0.03 0.05 0.07 0.07 0.06 0.06 0.05 0.04 0.05 0.05 0.04 0.04 0.05 0.06 0.06 0.05 0.06 0.09 0.09 0.08 0.06 0.04 0.05 0.06 0.04 0.03 0.03 0.04 0.05 0.05 0.03 0.02 0.02 0.02 0.02 0.03 0.03 0.05 0.06 0.06 0.07 0.08 0.07
0.02 0.03 0.05 0.08 0.06 0.05 0.04 0.05 0.06 0.06 0.05 0.06 0.06 0.07 0.06 0.05 0.06 0.07 0.06 0.05 0.04 0.03 0.02 0.02 0.02 0.02 0.02 0.04 0.04 0.03 0.02 0.02 0.02 0.02 0.02 0.02 0.03 0.05 0.07 0.08 0.09 0.11 0.10
0.02 0.03 0.04 0.05 0.05 0.04 0.04 0.04 0.05 0.05 0.05 0.06 0.05 0.05 0.04 0.04 0.05 0.06 0.05 0.04 0.03 0.02 0.02 0.01 0.02 0.03 0.03 0.02 0.02 0.02 0.02 0.03 0.03 0.03 0.02 0.03 0.03 0.03 0.04 0.05 0.06 0.07 0.06
0.02 0.03 0.03 0.04 0.05 0.05 0.04 0.04 0.04 0.03 0.02 0.03 0.03 0.04 0.03 0.02 0.03 0.04 0.05 0.04 0.02 0.02 0.02 0.02 0.03 0.04 0.04 0.02 0.01 0.02 0.03 0.03 0.03 0.03 0.04 0.05 0.05 0.05 0.04 0.04 0.04 0.04 0.04
0.03 0.04 0.05 0.06 0.07 0.07 0.05 0.06 0.05 0.03 0.01 0.01 0.02 0.03 0.03 0.02 0.03 0.04 0.05 0.06 0.04 0.03 0.02 0.02 0.02 0.02 0.02 0.02 0.02 0.02 0.02 0.03 0.03 0.03 0.04 0.04 0.05 0.06 0.05 0.04 0.03 0.03 0.03
0.05 0.07 0.09 0.10 0.09 0.08 0.06 0.05 0.05 0.02 0.01 0.02 0.02 0.04 0.03 0.03 0.04 0.04 0.06 0.09 0.08 0.07 0.05 0.04 0.03 0.03 0.03 0.03 0.03 0.02 0.02 0.03 0.04 0.03 0.04 0.04 0.03 0.03 0.02 0.02 0.02 0.02 0.02
0.09 0.12 0.12 0.11 0.10 0.08 0.06 0.04 0.04 0.03 0.02 0.02 0.03 0.05 0.04 0.03 0.03 0.05 0.07 0.09 0.10 0.09 0.07 0.05 0.03 0.03 0.03 0.04 0.04 0.03 0.03 0.02 0.03 0.02 0.02 0.02 0.02 0.02 0.02 0.02 0.01 0.01 0.01
MSLP
1015.48 1015.33 1015.23 1015.18 1015.16 1015.18 1015.24 1015.34 1015.49 1015.68 1015.90 1016.12 1016.34 1016.53 1016.69 1016.79 1016.86 1016.89 1016.89 1016.87 1016.82 1016.74 1016.62 1016.45 1016.23 1015.97 1015.69 1015.41 1015.16 1014.99 1014.91 1014.94 1015.08 1015.31 1015.60 1015.90 1016.18 1016.40 1016.53 1016.58 1016.53 1016.43 1016.30
1015.55 1015.43 1015.35 1015.32 1015.30 1015.32 1015.38 1015.50 1015.68 1015.93 1016.22 1016.54 1016.85 1017.11 1017.32 1017.44 1017.49 1017.47 1017.39 1017.28 1017.14 1016.97 1016.77 1016.53 1016.24 1015.91 1015.55 1015.19 1014.86 1014.60 1014.45 1014.43 1014.55 1014.79 1015.12 1015.49 1015.86 1016.17 1016.39 1016.50 1016.51 1016.43 1016.29
1015.70 1015.61 1015.57 1015.56 1015.56 1015.57 1015.63 1015.76 1015.97 1016.27 1016.63 1017.03 1017.42 1017.75 1018.00 1018.15 1018.18 1018.11 1017.97 1017.77 1017.54 1017.29 1017.01 1016.69 1016.33 1015.93 1015.49 1015.05 1014.63 1014.29 1014.06 1013.98 1014.07 1014.30 1014.65 1015.07 1015.51 1015.91 1016.22 1016.42 1016.50 1016.48 1016.39
1015.96 1015.92 1015.93 1015.94 1015.95 1015.96 1016.02 1016.14 1016.36 1016.68 1017.09 1017.54 1018.00 1018.39 1018.69 1018.85 1018.88 1018.78 1018.59 1018.33 1018.03 1017.71 1017.36 1016.97 1016.55 1016.09 1015.58 1015.07 1014.58 1014.15 1013.85 1013.71 1013.75 1013.95 1014.30 1014.75 1015.24 1015.70 1016.10 1016.39 1016.56 1016.63 1016.61
1016.38 1016.40 1016.45 1016.49 1016.50 1016.51 1016.54 1016.64 1016.85 1017.17 1017.59 1018.07 1018.56 1018.99 1019.33 1019.52 1019.55 1019.45 1019.24 1018.94 1018.60 1018.23 1017.84 1017.42 1016.95 1016.45 1015.90 1015.33 1014.78 1014.30 1013.93 1013.73 1013.71 1013.87 1014.20 1014.64 1015.14 1015.65 1016.10 1016.47 1016.74 1016.90 1016.99
1016.99 1017.07 1017.16 1017.22 1017.24 1017.23 1017.23 1017.28 1017.44 1017.73 1018.13 1018.61 1019.10 1019.56 1019.92 1020.14 1020.20 1020.11 1019.90 1019.61 1019.26 1018.88 1018.47 1018.04 1017.56 1017.04 1016.48 1015.89 1015.31 1014.79 1014.38 1014.12 1014.04 1014.15 1014.42 1014.83 1015.31 1015.82 1016.31 1016.73 1017.08 1017.34 1017.52
1017.76 1017.91 1018.06 1018.15 1018.16 1018.13 1018.08 1018.07 1018.17 1018.39 1018.74 1019.19 1019.67 1020.13 1020.50 1020.74 1020.83 1020.78 1020.60 1020.33 1020.01 1019.65 1019.26 1018.84 1018.38 1017.88 1017.33 1016.75 1016.18 1015.65 1015.21 1014.92 1014.78 1014.83 1015.03 1015.37 1015.80 1016.28 1016.76 1017.20 1017.60 1017.93 1018.19
1018.66 1018.89 1019.09 1019.21 1019.23 1019.17 1019.07 1019.01 1019.03 1019.18 1019.46 1019.85 1020.30 1020.74 1021.11 1021.37 1021.49 1021.47 1021.34 1021.11 1020.83 1020.51 1020.17 1019.79 1019.38 1018.92 1018.42 1017.88 1017.34 1016.83 1016.40 1016.08 1015.91 1015.89 1016.01 1016.27 1016.62 1017.02 1017.46 1017.88 1018.29 1018.65 1018.98
1019.61 1019.93 1020.19 1020.35 1020.38 1020.30 1020.17 1020.05 1020.01 1020.10 1020.31 1020.64 1021.04 1021.44 1021.80 1022.06 1022.21 1022.22 1022.13 1021.95 1021.72 1021.45 1021.16 1020.84 1020.49 1020.10 1019.66 1019.20 1018.72 1018.25 1017.85 1017.53 1017.33 1017.25 1017.30 1017.46 1017.70 1018.02 1018.37 1018.74 1019.12 1019.49 1019.83
1020.54 1020.94 1021.27 1021.47 1021.53 1021.45 1021.31 1021.16 1021.08 1021.12 1021.28 1021.55 1021.90 1022.27 1022.60 1022.86 1023.00 1023.04 1022.98 1022.84 1022.65 1022.43 1022.20 1021.94 1021.65 1021.33 1020.98 1020.59 1020.19 1019.79 1019.43 1019.13 1018.92 1018.80 1018.78 1018.84 1018.99 1019.19 1019.45 1019.74 1020.05 1020.38 1020.71
1021.36 1021.84 1022.24 1022.48 1022.57 1022.53 1022.40 1022.26 1022.18 1022.20 1022.33 1022.57 1022.88 1023.21 1023.52 1023.75 1023.89 1023.93 1023.88 1023.76 1023.60 1023.41 1023.22 1023.01 1022.79 1022.54 1022.26 1021.96 1021.64 1021.32 1021.02 1020.76 1020.55 1020.41 1020.33 1020.32 1020.36 1020.46 1020.61 1020.80 1021.04 1021.30 1021.58
1022.04 1022.59 1023.03 1023.32 1023.46 1023.45 1023.37 1023.28 1023.23 1023.27 1023.41 1023.64 1023.93 1024.23 1024.51 1024.71 1024.83 1024.85 1024.80 1024.68 1024.53 1024.37 1024.20 1024.02 1023.85 1023.66 1023.45 1023.23 1022.99 1022.74 1022.51 1022.29 1022.10 1021.95 1021.84 1021.76 1021.73 1021.74 1021.79 1021.88 1022.03 1022.21 1022.43
1022.59 1023.18 1023.65 1023.97 1024.14 1024.19 1024.18 1024.15 1024.17 1024.26 1024.44 1024.69 1024.98 1025.27 1025.52 1025.70 1025.78 1025.78 1025.71 1025.59 1025.43 1025.27 1025.11 1024.96 1024.82 1024.67 1024.52 1024.36 1024.18 1024.00 1023.82 1023.65 1023.49 1023.34 1023.22 1023.11 1023.02 1022.95 1022.92 1022.93 1022.99 1023.10 1023.23
1023.03 1023.62 1024.10 1024.43 1024.64 1024.74 1024.80 1024.86 1024.96 1025.13 1025.37 1025.66 1025.97 1026.26 1026.49 1026.65 1026.71 1026.69 1026.59 1026.46 1026.29 1026.13 1025.98 1025.84 1025.71 1025.59 1025.47 1025.35 1025.22 1025.08 1024.95 1024.81 1024.68 1024.55 1024.42 1024.30 1024.17 1024.07 1023.98 1023.93 1023.91 1023.94 1024.01
1023.42 1023.99 1024.44 1024.77 1024.99 1025.14 1025.26 1025.41 1025.60 1025.86 1026.16 1026.50 1026.84 1027.14 1027.37 1027.52 1027.56 1027.53 1027.42 1027.28 1027.12 1026.96 1026.81 1026.67 1026.55 1026.44 1026.33 1026.23 1026.12 1026.01 1025.90 1025.79 1025.68 1025.56 1025.44 1025.32 1025.19 1025.06 1024.94 1024.85 1024.78 1024.76 1024.76
1023.80 1024.33 1024.73 1025.03 1025.26 1025.44 1025.62 1025.83 1026.11 1026.44 1026.81 1027.20 1027.57 1027.89 1028.12 1028.27 1028.32 1028.29 1028.19 1028.06 1027.91 1027.76 1027.62 1027.49 1027.37 1027.26 1027.15 1027.04 1026.93 1026.82 1026.71 1026.61 1026.51 1026.41 1026.30 1026.19 1026.07 1025.94 1025.81 1025.70 1025.60 1025.53 1025.49
1024.21 1024.67 1025.03 1025.29 1025.50 1025.70 1025.92 1026.19 1026.52 1026.90 1027.33 1027.75 1028.15 1028.49 1028.74 1028.90 1028.97 1028.96 1028.89 1028.79 1028.67 1028.54 1028.42 1028.30 1028.19 1028.07 1027.94 1027.82 1027.69 1027.56 1027.44 1027.33 1027.23 1027.14 1027.04 1026.94 1026.83 1026.72 1026.60 1026.48 1026.38 1026.28 1026.20
1024.63 1025.05 1025.36 1025.59 1025.79 1025.99 1026.22 1026.52 1026.88 1027.30 1027.75 1028.20 1028.61 1028.96 1029.23 1029.41 1029.51 1029.54 1029.51 1029.46 1029.39 1029.30 1029.21 1029.11 1029.00 1028.87 1028.73 1028.58 1028.42 1028.26 1028.12 1027.99 1027.88 1027.79 1027.70 1027.61 1027.53 1027.43 1027.33 1027.22 1027.11 1027.01 1026.90
1025.05 1025.44 1025.72 1025.93 1026.12 1026.32 1026.57 1026.87 1027.25 1027.67 1028.12 1028.57 1028.98 1029.33 1029.62 1029.82 1029.96 1030.03 1030.07 1030.07 1030.05 1030.01 1029.96 1029.88 1029.78 1029.65 1029.49 1029.31 1029.13 1028.94 1028.77 1028.62 1028.50 1028.40 1028.32 1028.24 1028.17 1028.09 1028.01 1027.91 1027.81 1027.70 1027.58
1025.41 1025.79 1026.07 1026.29 1026.48 1026.69 1026.95 1027.26 1027.63 1028.04 1028.48 1028.91 1029.30 1029.65 1029.94 1030.16 1030.33 1030.45 1030.54 1030.60 1030.63 1030.65 1030.63 1030.58 1030.49 1030.36 1030.19 1030.00 1029.80 1029.59 1029.40 1029.24 1029.11 1029.00 1028.92 1028.86 1028.80 1028.73 1028.66 1028.57 1028.47 1028.35 1028.22
1025.68 1026.07 1026.38 1026.62 1026.85 1027.08 1027.35 1027.67 1028.03 1028.42 1028.83 1029.23 1029.60 1029.93 1030.21 1030.45 1030.64 1030.80 1030.93 1031.04 1031.12 1031.17 1031.19 1031.16 1031.09 1030.97 1030.80 1030.61 1030.40 1030.20 1030.00 1029.84 1029.70 1029.60 1029.52 1029.46 1029.41 1029.35 1029.27 1029.19 1029.08 1028.95 1028.81
1025.81 1026.25 1026.60 1026.89 1027.16 1027.44 1027.74 1028.07 1028.42 1028.80 1029.17 1029.54 1029.88 1030.19 1030.46 1030.70 1030.90 1031.08 1031.24 1031.37 1031.48 1031.56 1031.60 1031.60 1031.54 1031.44 1031.29 1031.11 1030.92 1030.73 1030.55 1030.40 1030.28 1030.19 1030.11 1030.05 1029.99 1029.93 1029.85 1029.75 1029.63 1029.49 1029.32
1025.82 1026.30 1026.71 1027.07 1027.40 1027.73 1028.07 1028.42 1028.78 1029.14 1029.49 1029.83 1030.14 1030.43 1030.68 1030.91 1031.11 1031.29 1031.46 1031.60 1031.73 1031.82 1031.87 1031.88 1031.84 1031.75 1031.63 1031.49 1031.33 1031.18 1031.04 1030.91 1030.81 1030.73 1030.67 1030.60 1030.53 1030.45 1030.35 1030.23 1030.09 1029.92 1029.74
1025.72 1026.24 1026.70 1027.13 1027.53 1027.92 1028.31 1028.69 1029.06 1029.42 1029.76 1030.08 1030.37 1030.63 1030.87 1031.08 1031.27 1031.44 1031.60 1031.74 1031.86 1031.94 1031.99 1032.01 1031.98 1031.92 1031.84 1031.74 1031.63 1031.52 1031.43 1031.35 1031.28 1031.22 1031.15 1031.08 1031.00 1030.89 1030.76 1030.61 1030.43 1030.24 1030.04
1025.56 1026.10 1026.61 1027.10 1027.56 1028.01 1028.44 1028.85 1029.24 1029.61 1029.95 1030.26 1030.54 1030.78 1031.00 1031.20 1031.38 1031.53 1031.67 1031.79 1031.89 1031.96 1032.00 1032.02 1032.00 1031.97 1031.92 1031.87 1031.81 1031.76 1031.72 1031.68 1031.64 1031.60 1031.54 1031.45 1031.34 1031.20 1031.04 1030.85 1030.65 1030.43 1030.21
1025.39 1025.94 1026.47 1026.99 1027.50 1027.99 1028.46 1028.90 1029.32 1029.70 1030.04 1030.35 1030.63 1030.87 1031.08 1031.26 1031.43 1031.57 1031.68 1031.78 1031.85 1031.90 1031.93 1031.94 1031.93 1031.92 1031.91 1031.89 1031.89 1031.89 1031.89 1031.89 1031.88 1031.85 1031.78 1031.68 1031.54 1031.37 1031.17 1030.95 1030.71 1030.47 1030.24
Thickness
5791 5792 5790 5789 5786 5784 5781 5779 5776 5775 5772 5768 5763 5760 5758 5759 5758 5756 5755 5754 5752 5750 5748 5746 5744 5743 5742 5741 5739 5738 5737 5735 5734 5731 5729 5730 5732 5732 5732 5731 5730 5729 5728
5788 5790 5790 5790 5787 5784 5782 5779 5776 5775 5773 5770 5766 5763 5761 5759 5758 5757 5755 5754 5752 5751 5749 5747 5745 5743 5742 5740 5739 5737 5735 5734 5733 5729 5725 5722 5724 5728 5731 5730 5729 5729 5728
5788 5790 5790 5790 5788 5785 5783 5782 5778 5776 5774 5771 5767 5764 5760 5758 5756 5755 5754 5753 5752 5751 5749 5748 5746 5744 5742 5740 5739 5737 5735 5731 5731 5730 5726 5720 5717 5721 5726 5728 5728 5728 5727
5794 5792 5791 5790 5790 5789 5787 5784 5780 5776 5774 5772 5767 5763 5759 5755 5755 5754 5754 5753 5752 5751 5749 5748 5747 5745 5743 5741 5739 5738 5736 5733 5730 5729 5729 5727 5725 5719 5718 5724 5726 5727 5726
5797 5795 5795 5794 5793 5791 5788 5784 5781 5777 5774 5772 5769 5764 5760 5758 5756 5755 5753 5752 5751 5750 5749 5748 5746 5745 5743 5742 5740 5739 5737 5735 5733 5730 5728 5726 5724 5722 5718 5716 5720 5723 5725
5800 5799 5797 5796 5794 5792 5789 5785 5781 5777 5775 5772 5769 5765 5761 5758 5755 5753 5752 5751 5750 5749 5749 5748 5746 5745 5743 5742 5740 5739 5737 5736 5734 5732 5730 5728 5724 5721 5719 5716 5717 5718 5722
5802 5799 5797 5795 5793 5792 5789 5786 5781 5777 5775 5771 5769 5767 5763 5759 5755 5754 5752 5750 5749 5748 5748 5747 5745 5744 5743 5741 5740 5738 5737 5736 5734 5732 5731 5730 5728 5726 5722 5718 5716 5716 5719
5803 5802 5800 5798 5795 5793 5790 5786 5782 5778 5775 5772 5770 5769 5765 5761 5758 5755 5753 5751 5749 5749 5748 5746 5744 5743 5742 5741 5739 5738 5736 5735 5733 5732 5731 5729 5727 5726 5723 5721 5717 5714 5714
5803 5803 5801 5799 5796 5793 5790 5788 5783 5779 5776 5774 5771 5769 5765 5762 5758 5756 5754 5752 5750 5749 5747 5745 5743 5742 5740 5739 5738 5736 5734 5733 5731 5730 5729 5728 5727 5725 5724 5722 5720 5715 5710
5801 5803 5801 5799 5798 5795 5792 5788 5784 5779 5777 5774 5771 5769 5765 5762 5759 5755 5753 5751 5749 5747 5746 5744 5742 5740 5738 5737 5735 5734 5732 5731 5729 5729 5727 5726 5725 5724 5723 5722 5720 5718 5714
5797 5799 5799 5798 5797 5794 5790 5786 5782 5779 5776 5773 5770 5767 5764 5761 5757 5754 5752 5750 5748 5746 5744 5742 5740 5738 5736 5734 5733 5731 5730 5728 5727 5726 5725 5724 5724 5722 5721 5720 5718 5717 5714
5795 5796 5795 5793 5790 5788 5786 5783 5780 5777 5775 5772 5769 5766 5762 5759 5755 5753 5750 5748 5746 5744 5742 5739 5737 5735 5733 5731 5730 5729 5727 5726 5724 5723 5722 5721 5721 5719 5718 5717 5716 5714 5713
5791 5790 5789 5787 5786 5784 5782 5779 5776 5774 5772 5769 5765 5762 5759 5756 5754 5751 5748 5746 5744 5741 5739 5737 5735 5732 5730 5728 5727 5726 5725 5723 5722 5721 5719 5719 5718 5716 5715 5714 5713 5711 5710
5784 5784 5783 5782 5781 5780 5777 5775 5772 5770 5767 5765 5761 5758 5756 5753 5751 5749 5746 5744 5741 5739 5736 5734 5732 5729 5727 5725 5724 5723 5721 5720 5718 5718 5717 5716 5715 5714 5713 5711 5709 5708 5705
5778 5778 5777 5776 5776 5775 5773 5771 5769 5767 5764 5760 5757 5755 5752 5750 5747 5744 5742 5740 5737 5735 5732 5730 5728 5726 5724 5722 5721 5719 5717 5715 5714 5713 5713 5713 5712 5711 5710 5708 5706 5704 5701
5772 5773 5772 5771 5770 5770 5768 5766 5764 5763 5760 5756 5753 5751 5748 5745 5743 5740 5737 5735 5732 5729 5727 5725 5723 5721 5720 5718 5717 5715 5713 5711 5709 5708 5708 5708 5707 5706 5705 5703 5702 5700 5697
5768 5767 5766 5766 5765 5764 5763 5761 5760 5758 5755 5751 5749 5747 5744 5741 5738 5736 5733 5730 5727 5724 5722 5720 5719 5716 5715 5713 5712 5710 5708 5706 5704 5703 5702 5702 5701 5700 5699 5697 5695 5693 5691
5763 5762 5761 5760 5759 5759 5758 5758 5755 5752 5748 5746 5744 5743 5740 5737 5734 5731 5728 5725 5722 5719 5717 5715 5714 5712 5710 5708 5707 5705 5703 5700 5699 5698 5696 5695 5694 5694 5692 5691 5688 5686 5683
5758 5758 5757 5756 5754 5753 5753 5751 5748 5746 5743 5741 5739 5738 5735 5733 5730 5727 5724 5721 5718 5715 5712 5710 5708 5706 5704 5702 5701 5699 5697 5694 5692 5690 5689 5688 5687 5686 5685 5684 5680 5677 5674
5753 5752 5751 5751 5749 5748 5747 5745 5742 5739 5737 5737 5735 5734 5732 5730 5726 5723 5720 5717 5714 5710 5707 5704 5702 5700 5698 5696 5695 5693 5691 5687 5684 5682 5681 5679 5678 5677 5676 5674 5671 5667 5663
5747 5746 5744 5742 5742 5742 5741 5737 5735 5733 5733 5732 5730 5729 5727 5725 5722 5719 5715 5712 5709 5705 5701 5698 5695 5693 5691 5688 5687 5685 5684 5680 5677 5674 5671 5669 5668 5667 5666 5664 5661 5658 5655
5738 5737 5736 5734 5734 5734 5732 5730 5727 5727 5726 5725 5723 5722 5720 5719 5717 5713 5709 5706 5702 5698 5694 5691 5688 5685 5683 5680 5678 5677 5675 5673 5669 5665 5662 5660 5658 5657 5655 5653 5650 5648 5646
5728 5728 5726 5725 5725 5724 5724 5721 5720 5720 5720 5718 5716 5714 5713 5711 5708 5706 5702 5698 5695 5691 5687 5684 5680 5677 5674 5672 5670 5668 5666 5663 5660 5656 5653 5651 5649 5647 5644 5641 5639 5637 5634
5718 5718 5716 5715 5713 5714 5715 5714 5714 5714 5712 5710 5708 5707 5704 5701 5698 5696 5694 5690 5686 5683 5679 5676 5672 5669 5666 5663 5661 5659 5656 5654 5651 5647 5644 5641 5638 5635 5632 5629 5627 5625 5622
5708 5708 5707 5706 5705 5704 5705 5706 5706 5706 5704 5702 5700 5698 5695 5692 5689 5685 5682 5680 5677 5675 5672 5668 5665 5662 5657 5654 5652 5650 5647 5645 5642 5638 5635 5631 5628 5624 5621 5618 5615 5612 5609
5699 5698 5698 5697 5696 5695 5696 5697 5697 5697 5696 5693 5691 5688 5686 5683 5679 5675 5670 5666 5665 5664 5661 5658 5656 5653 5649 5645 5643 5640 5637 5635 5632 5630 5625 5620 5616 5613 5609 5606 5603 5600 5597